Location: Hurstbourne Priors
(51.2000°N, 1.3667°W)
Time: 23:02:29
(UTC+00:00)

Altair - Pass Details

Date: 13 April 2021
Orbit: 1501 x 1683 km, 47.2° (Epoch: 13 May)

Event Time Altitude Azimuth Distance (km) Brightness Sun altitude
Rises 12:00:45 0° 278° (W) 4,744 10.0 48.0°
Reaches altitude 10° 12:03:54 10° 275° (W) 3,737 9.6 48.0°
Maximum altitude 12:13:04 60° 198° (SSW) 1,698 9.8 48.0°
Drops below altitude 10° 12:22:00 10° 122° (ESE) 3,649 9.9 47.9°
Sets 12:25:02 0° 119° (ESE) 4,627 10.2 47.9°
